GFSNW_sfc_dewp_246.txt.gz
Dewpoint
42 41 41 42 41 42 38 32 20 32 36 21 27 15 25 27 23 23 26 27 22 21 20 19 23 22 24 32 31 28 29 18 22 20 30 35 37 36 35 31 29 34 32 29
43 41 41 41 41 40 35 25 27 33 32 12 10 27 26 25 23 21 19 20 20 20 18 19 27 25 26 29 30 30 30 19 11 14 28 29 30 31 32 32 33 34 30 29
43 41 41 40 41 40 35 27 22 23 28 27 24 23 22 24 25 22 19 19 21 20 22 25 23 24 26 27 30 34 34 26 15 14 21 26 25 28 30 30 28 30 32 32
41 42 40 41 40 41 34 30 23 24 15 17 23 24 23 21 21 21 21 20 19 22 20 20 23 24 24 25 34 33 30 23 20 23 27 28 27 27 28 28 30 27 28 30
42 41 41 42 40 41 36 22 23 25 23 26 24 23 21 21 21 22 20 19 18 20 20 21 19 21 23 23 30 28 32 25 27 24 26 25 27 27 27 27 29 29 28 28
42 42 42 42 41 41 36 32 33 28 23 25 24 20 22 22 23 22 21 22 20 20 20 21 23 23 23 23 22 23 27 24 21 16 24 23 18 23 24 24 27 26 26 27
41 40 42 43 42 41 39 35 36 30 20 23 22 22 22 22 21 22 22 23 22 21 26 26 24 22 20 23 23 25 24 22 24 19 21 4 18 20 19 22 25 24 26 32
41 41 42 43 43 42 38 35 36 32 24 25 24 24 22 24 24 22 21 22 25 30 25 19 9 11 14 20 22 22 23 22 15 13 15 17 17 18 14 20 21 25 24 27
41 40 41 41 41 41 38 36 37 34 27 21 25 26 25 21 20 20 24 29 30 30 20 13 6 4 11 11 19 27 25 24 21 16 10 5 18 19 19 20 17 24 24 23
40 40 41 41 40 41 39 35 35 34 28 27 27 25 23 28 23 22 22 25 23 27 5 4 9 13 19 16 15 16 21 25 19 20 19 20 23 21 24 16 18 25 25 23
39 40 39 41 39 40 39 34 36 34 28 27 27 26 25 25 24 21 21 23 18 13 18 12 12 16 23 21 20 18 18 16 14 18 17 16 26 27 22 24 26 25 27 26
39 39 39 41 39 40 40 35 35 36 33 27 30 29 29 28 29 30 30 27 25 21 14 16 21 18 22 22 17 26 22 26 24 22 21 31 34 33 33 32 28 27 26 26
38 38 39 38 38 40 38 33 33 32 29 26 25 25 27 28 29 29 24 25 28 28 30 28 25 20 22 19 22 24 25 30 28 29 30 31 33 32 34 33 31 28 30 28
37 37 38 38 38 40 38 32 33 34 32 25 21 26 27 30 29 29 29 28 29 30 34 28 26 25 28 23 25 24 24 23 23 23 25 28 30 32 32 33 32 30 30 29
36 37 37 37 39 39 38 34 33 34 29 19 22 25 23 23 24 26 30 31 30 31 29 28 26 28 27 25 25 23 25 24 24 23 26 28 26 29 32 30 29 28 28 28
36 37 38 39 36 36 32 22 36 35 32 22 18 26 27 27 29 28 27 28 32 32 31 30 32 32 30 25 21 21 21 24 27 27 28 28 30 32 29 29 29 30 29 29
36 37 38 38 37 36 27 24 33 39 36 29 23 20 26 33 32 31 29 32 34 34 32 31 27 28 31 27 21 21 22 22 23 25 30 29 28 28 30 30 29 30 29 29
36 36 37 38 38 36 34 34 36 37 34 32 22 20 23 30 23 23 30 30 33 32 31 31 27 26 27 23 24 25 27 32 31 30 30 29 30 30 29 30 29 29 29 29
36 36 37 36 33 30 29 35 36 36 30 23 23 18 11 30 27 27 32 32 28 29 27 26 27 25 24 25 29 31 34 33 31 30 30 30 29 29 29 29 28 28 28 28
36 34 33 30 33 37 37 37 33 31 32 31 24 23 20 26 27 21 25 31 27 24 25 25 26 25 29 33 34 32 30 29 29 29 28 28 28 28 28 28 28 29 28 27
33 31 29 33 37 32 30 27 27 26 24 28 25 23 20 25 20 19 24 20 23 20 22 23 22 24 31 33 33 33 32 29 28 28 28 27 27 26 27 27 28 28 28 28
35 35 35 32 28 22 20 18 24 25 21 24 23 26 26 26 31 26 25 23 25 21 25 20 18 27 28 28 28 28 28 28 28 27 27 29 28 29 28 28 28 27 28 28
33 30 27 23 21 16 18 7 19 16 23 26 30 27 31 33 34 29 28 25 21 25 11 16 22 25 27 28 28 27 27 29 28 27 28 30 30 30 29 29 29 29 28 28
28 26 18 20 16 19 18 20 19 23 26 27 30 26 31 31 29 28 23 24 23 13 8 18 25 26 26 27 30 29 28 29 29 29 29 30 30 28 28 29 30 30 30 29
25 25 14 20 22 23 23 24 26 28 30 26 26 24 27 26 24 25 23 18 15 18 13 20 24 26 27 28 29 30 29 29 30 30 30 29 29 29 28 29 30 30 28 28
26 26 21 22 21 17 18 22 22 27 27 24 23 23 21 21 23 21 17 18 11 16 23 23 25 25 29 29 28 29 29 29 30 29 30 30 29 29 28 24 25 29 29 29
24 19 25 22 20 18 20 21 23 27 24 18 26 22 18 23 20 20 22 14 17 25 27 27 26 28 30 28 27 28 26 29 29 29 30 30 29 27 27 26 27 28 27 27

GFSNW_sfc_dewp_252.txt.gz
Dewpoint
44 44 42 41 41 41 36 29 15 30 36 20 17 19 24 27 24 22 23 24 23 18 17 17 17 20 25 27 23 21 28 29 19 21 28 32 30 29 28 21 18 23 27 22
43 43 43 41 40 40 32 23 25 31 30 11 10 23 26 26 22 22 20 19 19 21 17 17 20 20 25 26 19 23 31 25 17 15 24 30 25 26 26 28 28 23 20 28
42 43 43 42 40 42 33 24 12 20 25 24 22 23 22 23 24 22 22 21 20 19 19 20 19 17 20 21 21 26 29 24 22 16 19 23 23 24 24 26 20 22 21 26
42 42 41 43 41 42 32 23 14 21 9 14 25 24 23 20 19 23 22 21 20 20 21 19 17 17 17 19 22 24 25 12 16 20 19 20 21 24 25 23 23 22 21 25
43 43 42 43 41 42 32 19 19 25 24 26 24 21 19 21 21 21 21 20 20 22 19 20 20 20 19 19 20 20 24 14 18 15 19 20 16 14 15 22 21 27 29 28
42 44 42 42 42 39 32 32 30 26 20 21 17 19 22 22 23 23 23 22 21 21 22 22 21 21 22 22 21 20 19 15 17 10 17 17 11 18 17 18 28 28 23 23
43 44 43 43 43 41 36 33 33 30 16 23 23 23 23 21 21 22 23 24 23 23 22 25 25 25 24 23 22 22 19 17 19 11 17 -3 14 15 18 19 24 29 28 28
44 44 44 42 41 43 40 38 35 31 17 22 23 23 23 24 24 23 24 24 23 25 22 19 10 8 10 14 17 19 21 19 10 6 11 14 17 20 22 21 24 31 31 30
44 43 44 42 41 41 41 39 39 34 22 20 22 22 25 21 19 19 21 25 25 25 14 10 2 1 9 11 17 28 20 19 17 11 13 6 13 27 29 30 22 32 32 31
43 43 43 41 41 41 40 39 40 36 27 24 25 20 19 23 22 18 20 21 22 26 7 14 7 12 17 17 16 15 21 23 17 15 14 16 22 28 30 20 26 34 33 33
42 42 41 40 41 41 40 35 39 36 30 25 26 26 25 26 26 19 19 16 17 11 10 11 10 16 15 17 15 16 18 16 15 20 12 6 30 23 23 30 34 34 35 33
39 39 40 40 39 39 39 36 36 39 34 29 29 30 29 27 26 26 26 17 24 23 17 12 15 9 11 16 14 22 20 25 23 23 19 23 25 26 29 34 33 34 33 32
38 38 39 39 39 40 40 37 35 36 31 25 23 25 27 30 30 29 25 22 24 24 25 19 17 18 20 14 18 21 22 31 27 26 24 25 26 25 30 31 32 33 34 30
37 38 39 38 37 37 38 35 34 36 31 22 21 25 25 27 28 29 28 26 25 25 24 17 18 20 23 20 20 21 22 22 20 21 21 23 27 29 26 26 31 30 30 30
35 35 35 34 37 37 37 37 36 37 30 17 21 26 25 25 26 27 28 28 26 24 23 24 19 23 23 23 24 22 23 21 21 19 21 23 24 26 30 29 30 31 29 28
35 35 35 36 37 37 32 20 29 37 36 28 14 21 24 26 25 24 24 27 28 29 26 23 25 27 28 23 21 23 23 24 25 23 24 25 26 27 30 30 30 30 30 30
37 36 35 36 37 35 27 23 27 38 37 25 19 19 23 25 29 25 22 27 25 25 27 26 25 28 31 26 20 20 23 23 24 27 30 25 28 28 30 30 29 30 29 29
37 38 36 37 38 38 35 35 39 37 32 29 20 19 19 25 21 25 30 25 25 28 25 27 27 27 28 24 23 24 26 32 32 33 32 30 30 30 28 28 28 28 28 28
35 38 36 35 34 32 31 36 39 37 28 15 21 15 8 24 24 30 31 31 25 31 26 26 27 25 21 23 24 29 32 32 30 29 31 33 31 28 27 27 27 26 27 27
33 36 29 26 30 35 37 36 31 30 30 28 21 21 15 21 20 15 23 26 24 19 22 26 23 22 23 27 30 32 32 32 32 27 26 26 26 26 26 25 26 26 28 27
33 32 28 32 36 35 32 27 26 25 23 23 22 21 17 23 20 22 26 17 21 19 20 21 20 21 26 31 33 34 32 31 27 27 27 26 28 28 28 28 28 27 27 27
35 35 36 36 32 29 24 20 24 23 19 23 24 24 22 25 27 24 24 21 23 18 24 22 17 23 30 30 30 29 28 27 27 26 26 27 27 27 28 28 27 27 28 29
33 33 29 26 25 18 17 8 18 21 25 24 25 28 28 29 30 27 24 19 16 25 17 18 21 24 28 27 27 26 27 27 26 26 26 26 27 29 28 28 29 29 27 28
28 25 18 20 15 18 18 17 20 24 28 30 31 28 27 29 27 26 24 26 26 16 9 16 20 26 27 27 27 26 26 27 27 27 25 25 25 25 28 29 29 28 27 26
25 25 13 17 21 23 25 25 23 24 28 26 25 26 25 25 24 25 23 17 17 17 12 16 22 26 26 26 27 25 23 23 28 28 28 28 27 28 28 28 28 28 27 27
28 25 20 21 22 20 23 25 26 27 26 25 25 24 21 21 23 21 17 18 10 13 19 22 24 26 26 27 27 27 27 25 25 27 28 26 27 28 29 28 28 28 27 27
23 21 23 22 22 23 23 26 25 26 25 17 23 18 17 21 18 19 21 15 15 20 22 23 25 26 28 28 27 26 25 25 24 25 27 28 28 30 27 17 21 28 28 28

GFSNW_sfc_dewp_255.txt.gz
Dewpoint
44 43 43 41 41 40 35 30 24 32 37 27 23 21 23 26 25 22 22 23 22 18 17 14 13 13 19 18 22 19 26 26 20 17 25 31 30 28 28 22 19 22 22 18
42 43 42 42 41 39 34 29 27 32 34 24 20 23 25 27 22 22 20 17 17 19 16 14 16 15 20 18 18 17 23 22 16 9 18 26 22 28 30 29 27 20 18 16
41 41 41 43 41 41 34 27 21 25 29 25 22 23 21 21 23 20 21 20 20 19 19 18 17 17 18 21 19 24 24 22 19 14 15 20 21 20 24 25 21 21 21 21
42 40 41 43 42 40 32 26 20 23 19 23 26 24 23 20 18 22 22 20 19 18 17 17 16 14 17 18 20 21 22 19 17 18 18 15 16 21 21 20 20 19 17 19
41 42 43 43 43 40 33 26 24 27 26 26 24 23 19 19 18 21 19 20 20 21 22 20 20 20 18 17 18 19 24 17 17 16 12 13 14 13 14 16 21 23 22 23
42 42 43 43 43 39 34 32 31 29 23 23 21 21 20 20 22 22 22 22 22 21 21 23 23 21 21 19 18 20 20 20 16 11 9 13 14 14 12 16 24 28 26 32
42 43 44 43 43 40 37 33 34 28 22 23 22 22 22 20 20 20 21 23 22 22 25 25 24 21 20 21 22 23 21 20 20 13 12 8 9 13 17 20 23 32 34 35
43 44 44 44 43 42 40 38 36 31 23 23 22 22 22 22 23 22 21 22 25 27 23 20 18 15 14 14 16 20 25 23 18 11 13 9 10 25 25 23 23 29 32 34
42 43 43 44 43 42 42 39 40 34 26 24 23 21 21 22 22 21 21 24 27 24 23 19 13 9 12 15 17 26 21 20 17 16 11 9 11 24 22 26 22 27 32 33
41 42 43 43 42 41 41 40 40 35 29 27 25 24 23 23 23 22 23 22 22 25 20 17 14 13 16 15 15 15 19 21 17 14 12 14 19 23 19 17 23 30 33 36
41 41 43 42 41 41 41 39 41 37 31 30 27 27 24 26 27 22 23 22 21 21 18 17 17 18 19 14 10 12 15 19 18 19 17 13 25 19 17 25 30 31 34 38
39 39 39 40 41 40 40 37 37 39 34 31 31 31 30 28 27 27 29 23 22 26 23 20 20 19 19 15 13 17 18 22 20 25 21 26 27 26 25 29 29 29 33 36
37 37 37 38 39 39 39 38 38 37 32 30 29 29 31 33 33 31 27 27 25 25 27 25 24 19 21 15 17 17 17 22 23 24 24 22 24 24 26 27 27 30 35 35
36 35 37 38 37 36 38 38 37 37 33 24 24 25 26 27 31 32 30 27 28 27 28 25 23 19 22 18 17 18 17 19 19 20 21 22 24 25 24 26 30 30 29 28
35 34 34 34 34 35 38 38 38 38 32 25 25 26 27 27 28 29 31 30 28 27 26 25 21 22 21 20 19 18 18 20 21 19 21 23 23 25 26 27 28 29 29 27
36 34 33 34 35 37 36 30 31 38 37 29 21 23 24 26 26 27 28 29 29 28 26 24 24 23 26 22 18 19 22 24 25 23 24 26 29 29 30 29 29 29 28 29
37 37 36 35 36 36 31 27 30 38 37 27 21 21 23 25 28 27 27 28 29 28 27 26 23 26 29 25 19 18 22 21 23 26 31 29 30 29 30 29 28 29 29 29
34 36 38 37 37 38 35 36 38 37 33 30 21 19 22 25 28 29 28 27 29 28 27 27 26 27 27 22 19 20 22 25 30 33 32 32 34 33 30 29 27 26 27 27
32 36 37 36 35 33 32 39 39 38 32 22 22 18 16 23 29 31 32 28 22 27 25 26 27 24 23 21 21 23 26 32 31 31 32 31 28 27 27 26 26 26 26 28
31 36 32 27 31 36 37 35 32 30 30 28 21 21 20 24 23 22 25 27 25 21 24 27 26 20 22 23 25 27 31 31 31 27 26 26 26 27 27 26 26 27 26 26
33 31 29 32 36 35 30 26 26 27 22 25 23 20 17 22 20 21 26 21 23 18 21 23 21 21 25 31 31 33 33 31 28 27 27 26 27 27 27 27 27 27 27 26
34 34 35 35 32 29 25 23 25 21 17 24 22 23 23 25 28 25 26 21 23 16 25 23 20 25 30 30 31 32 30 28 26 26 25 26 26 27 28 28 28 28 29 29
34 31 29 27 25 20 18 13 18 21 25 26 26 25 26 28 29 26 24 20 19 26 24 20 23 25 29 30 29 28 28 28 26 25 25 26 26 27 27 28 29 30 29 28
26 23 18 20 16 18 18 17 19 26 29 27 29 29 29 29 26 25 23 23 27 21 19 18 23 25 29 28 29 27 27 27 26 25 25 27 28 26 27 29 30 29 28 28
24 24 15 18 20 22 25 25 24 25 29 29 29 28 28 26 25 25 24 21 18 20 19 22 25 27 28 28 29 28 28 26 27 29 29 28 29 28 29 31 31 29 28 29
26 25 20 22 22 22 25 25 26 28 28 29 28 25 23 23 23 21 20 18 16 19 23 26 26 27 27 28 29 29 29 28 27 28 27 28 26 27 29 30 29 25 27 29
24 21 24 21 21 23 25 26 27 30 28 24 25 21 18 22 19 18 22 21 23 23 27 27 27 27 28 29 29 27 25 26 26 26 25 26 29 28 29 27 28 26 28 30

GFSNW_sfc_dewp_261.txt.gz
Dewpoint
41 42 44 43 41 41 38 34 38 40 41 36 38 35 20 22 17 19 16 19 18 16 14 12 12 12 11 18 14 16 19 27 16 13 12 11 14 28 23 21 19 19 18 13
41 42 42 43 41 40 32 34 32 38 39 33 35 23 20 21 18 15 18 17 16 16 15 14 13 14 14 14 15 17 20 19 17 8 11 29 28 31 32 27 23 20 18 16
41 40 43 43 41 40 36 34 32 35 35 30 26 23 21 21 21 19 17 16 17 17 17 17 16 15 15 15 17 19 20 20 19 15 18 25 19 23 25 23 19 18 17 15
43 40 42 44 43 41 36 37 34 33 32 33 28 24 20 18 18 19 17 18 17 16 17 18 17 15 15 15 17 17 17 21 20 20 15 9 8 16 10 17 19 19 12 12
42 42 43 44 44 41 35 34 36 31 28 25 25 25 22 19 15 16 16 18 16 17 19 19 21 19 18 17 16 15 18 19 17 18 13 10 11 10 9 7 6 8 8 10
44 43 43 45 44 41 35 32 32 34 28 26 28 27 21 18 17 19 18 19 19 19 18 20 21 21 20 19 17 17 19 23 20 17 13 14 15 10 8 7 6 10 21 28
44 44 44 45 45 42 36 33 31 36 32 26 25 19 18 17 18 20 18 20 20 20 22 22 20 19 18 18 17 19 21 21 23 21 18 13 9 7 11 19 24 33 26 24
44 44 45 46 46 44 37 35 35 38 31 26 22 21 21 21 21 21 21 21 21 24 21 22 22 24 22 19 15 15 18 22 24 19 11 8 4 15 25 20 22 28 27 25
44 44 44 45 45 43 38 38 39 39 34 30 23 22 22 25 26 25 23 22 24 24 27 25 17 16 16 17 16 15 18 23 22 21 15 11 25 22 18 17 16 24 26 26
43 41 43 44 45 44 40 41 41 38 33 28 27 27 26 25 25 28 25 23 24 25 28 23 20 17 11 12 17 17 16 24 22 20 18 12 14 16 18 17 24 23 26 28
39 40 40 43 44 44 43 41 43 37 36 32 29 28 26 26 27 29 28 27 28 28 24 24 23 19 19 17 13 12 13 16 21 23 19 13 20 18 18 23 24 24 25 26
39 39 43 42 43 44 44 41 42 42 37 36 36 35 33 30 28 30 32 27 22 29 28 27 26 24 23 17 16 14 16 20 22 21 19 22 21 21 22 22 24 26 25 24
39 39 42 43 42 42 41 39 41 40 35 34 34 32 32 32 32 33 33 31 28 27 26 30 27 23 19 19 16 15 15 16 23 23 19 18 18 19 22 24 24 27 29 25
38 37 38 39 39 40 40 39 41 39 37 31 29 28 29 31 31 32 32 30 28 28 27 33 28 24 21 19 17 17 16 17 17 18 17 18 21 22 23 24 26 28 29 28
37 37 36 37 39 39 38 40 41 38 35 31 30 29 26 28 28 28 30 31 30 33 32 30 25 21 21 20 19 19 17 18 18 18 19 25 19 22 25 27 28 29 29 29
35 35 36 37 38 38 38 34 34 38 40 34 26 28 26 26 29 29 28 28 33 35 31 28 26 24 26 24 18 17 17 19 21 20 20 22 24 24 27 31 30 29 30 30
37 36 36 36 38 36 36 32 34 39 41 34 26 24 25 26 27 28 31 31 35 32 31 27 23 22 28 25 20 18 17 17 19 20 23 23 22 28 33 32 31 31 28 28
33 34 36 36 36 37 37 37 37 39 35 34 26 23 24 27 31 29 29 30 32 31 27 25 22 22 25 24 18 17 17 17 19 19 21 24 34 32 31 30 28 26 25 26
34 33 36 37 36 36 32 39 39 37 36 31 26 21 23 25 27 32 30 31 26 29 28 25 25 24 23 20 18 18 18 18 19 20 24 27 32 30 27 26 26 26 26 27
32 33 33 32 34 40 38 37 33 32 34 34 26 20 23 24 25 31 31 32 26 26 24 24 27 21 21 20 20 21 20 20 20 23 26 28 29 27 27 26 26 26 26 27
32 31 28 35 37 35 32 30 29 27 26 26 22 21 18 20 21 24 30 25 23 20 19 24 22 19 24 26 30 30 29 26 22 28 28 28 28 27 27 26 26 27 27 26
33 33 34 34 32 31 25 22 19 16 16 20 21 23 23 23 23 22 24 19 20 16 26 25 17 21 20 26 31 31 29 29 29 28 28 27 26 26 26 27 27 27 28 31
31 29 26 26 23 21 18 16 15 20 19 23 25 28 28 28 26 26 25 25 22 24 27 19 17 19 24 28 31 30 30 30 28 27 25 25 26 26 28 28 28 28 28 28
27 22 17 18 20 16 10 11 15 21 26 27 28 29 29 28 27 25 25 23 23 21 17 15 24 25 27 31 32 29 29 29 29 28 26 26 28 29 29 35 33 33 33 35
25 22 15 14 14 17 23 25 23 24 27 27 29 31 32 28 26 25 21 20 19 16 17 26 32 30 32 32 32 33 36 33 32 32 33 32 33 33 33 34 34 34 33 33
24 21 17 17 19 24 25 24 25 27 32 32 28 23 21 21 22 22 23 17 12 17 26 29 28 26 28 31 32 32 33 33 34 32 33 33 32 32 32 33 31 31 33 32
21 20 20 21 20 23 24 26 26 29 26 23 23 23 16 24 15 12 19 21 26 31 30 28 28 26 29 31 31 35 32 33 34 34 34 33 33 32 32 30 33 33 31 29

GFSNW_sfc_dewp_267.txt.gz
Dewpoint
45 43 45 45 44 45 42 37 34 40 42 32 32 29 24 24 15 19 20 21 22 18 15 14 15 16 17 21 19 18 25 17 16 14 13 25 27 24 19 10 8 14 15 12
44 44 44 45 44 42 36 36 36 38 40 21 26 25 22 22 18 18 20 23 19 19 17 16 18 18 19 15 20 21 20 15 6 10 13 21 22 24 22 19 20 14 8 10
44 43 43 45 43 42 38 36 27 32 34 36 32 23 23 22 24 21 18 19 18 19 19 20 19 19 21 22 19 30 22 19 13 12 11 14 8 13 19 17 7 11 12 11
44 42 44 45 43 43 39 36 31 31 26 25 31 27 25 23 22 21 21 20 18 19 17 18 18 20 19 20 23 20 19 10 15 16 19 16 14 15 15 15 15 12 11 10
45 43 44 45 44 43 38 28 33 34 29 30 28 29 25 23 21 22 20 19 21 20 19 20 19 22 21 20 19 19 21 11 19 16 16 16 15 16 16 16 14 14 12 10
45 45 44 45 45 42 38 38 33 35 32 26 26 27 25 22 23 22 20 21 20 19 22 23 23 23 22 22 20 18 19 17 15 11 16 18 14 19 16 19 25 31 24 29
45 45 45 45 45 42 39 38 36 33 24 28 27 26 26 24 20 21 22 21 20 25 24 24 24 23 22 21 20 20 20 18 18 14 18 2 15 18 24 27 33 31 33 32
45 45 45 45 45 45 39 39 37 33 24 29 27 26 24 22 23 22 22 23 26 25 24 20 13 17 20 20 21 19 20 21 14 15 13 16 14 20 24 23 24 27 28 29
45 45 45 45 45 45 40 40 40 37 28 27 28 27 26 25 25 26 27 27 28 25 24 14 5 8 16 14 17 19 17 21 20 13 11 4 20 25 24 21 21 28 29 29
43 45 45 45 45 45 41 41 40 37 30 31 29 28 27 29 27 27 26 25 27 27 16 10 13 17 19 16 16 16 19 17 12 11 12 18 22 19 18 15 16 29 30 32
43 45 45 45 45 45 42 39 42 37 31 32 33 32 29 29 30 24 27 24 25 19 13 14 16 18 20 19 18 17 17 16 10 13 7 11 22 18 19 23 24 31 31 30
45 44 44 44 45 45 44 38 43 43 35 33 37 37 36 34 33 31 29 26 27 27 19 20 23 19 20 20 15 20 16 20 19 18 18 25 23 20 24 30 30 31 33 30
42 42 42 42 44 45 43 38 40 38 33 32 32 31 33 34 34 36 31 32 30 28 29 25 24 19 21 15 19 18 18 19 20 21 20 20 22 21 31 32 32 30 32 30
42 42 42 43 43 45 43 39 40 38 33 26 28 31 33 34 34 33 34 34 33 31 31 22 22 20 24 21 20 19 19 20 18 17 18 21 21 25 30 29 30 31 31 30
41 41 42 42 43 43 42 39 40 41 33 28 27 31 28 28 33 33 32 32 30 27 26 25 21 25 23 24 23 22 20 18 17 16 18 20 21 23 27 28 31 31 31 30
40 39 38 38 40 41 38 31 36 39 39 32 22 30 26 29 30 30 30 30 32 30 30 28 27 26 24 21 20 18 20 22 22 20 21 21 23 26 25 33 32 32 30 30
38 38 38 39 41 38 33 29 34 41 40 30 23 24 27 29 28 31 30 31 31 28 27 29 25 24 25 24 20 18 21 21 21 21 22 22 22 23 32 31 29 31 29 28
38 38 38 38 38 36 35 36 37 40 36 32 20 22 27 28 29 26 31 29 33 32 27 26 24 25 25 22 20 19 19 19 21 21 22 21 22 31 30 28 27 26 26 28
37 37 37 35 33 30 32 39 40 39 32 21 23 21 18 28 30 29 26 26 16 25 21 22 23 22 19 22 21 21 21 21 20 23 22 20 24 31 29 31 27 27 26 27
35 33 31 29 33 41 38 36 33 32 32 32 25 25 22 27 27 25 23 26 22 19 23 25 24 19 19 18 18 19 21 21 22 23 24 25 32 32 31 29 27 27 26 26
31 29 28 38 40 35 32 27 24 24 24 27 26 22 19 25 22 26 31 25 29 22 22 21 23 23 23 24 24 24 24 22 21 22 23 28 32 32 31 28 28 27 27 27
31 31 35 35 32 27 24 22 26 24 21 25 22 23 24 23 24 21 23 22 24 20 24 21 20 22 23 24 27 33 31 28 29 33 31 31 29 29 28 27 27 28 28 27
32 29 27 27 25 21 18 12 18 16 19 26 27 24 29 28 28 26 25 23 18 23 11 13 15 19 21 27 33 33 35 34 31 28 28 29 29 30 29 28 29 29 28 28
27 22 11 18 20 19 16 16 19 24 25 27 31 30 30 28 26 27 21 22 21 11 8 13 24 30 33 34 36 35 35 34 33 33 32 32 31 30 29 28 27 26 27 27
24 25 16 16 18 21 24 25 24 26 30 30 31 29 30 28 27 25 22 18 13 18 16 24 28 32 33 32 34 33 31 31 31 31 28 26 28 28 27 29 29 28 23 21
26 25 20 22 21 20 23 25 25 30 29 30 29 26 24 24 25 24 22 18 15 21 25 29 32 30 31 31 33 33 33 32 32 31 32 30 26 27 29 29 29 27 24 20
21 19 22 21 20 20 22 25 25 29 28 22 25 21 17 26 21 17 23 21 25 28 30 31 31 29 29 29 30 31 32 32 32 30 32 31 32 31 29 27 25 25 27 29

GFSNW_sfc_dewp_273.txt.gz
Dewpoint
46 44 45 45 43 43 37 37 29 39 37 28 30 23 27 25 17 20 21 21 20 17 15 14 15 15 20 22 19 17 21 14 14 13 18 25 21 20 17 4 1 11 13 8
46 46 46 45 43 39 37 34 32 37 33 22 26 27 22 24 20 19 21 20 20 20 16 14 17 19 22 19 18 20 20 13 2 5 12 17 13 16 10 7 16 13 5 9
47 46 46 44 43 41 37 32 26 30 32 30 26 21 20 21 24 21 19 18 18 17 17 19 18 17 24 23 21 26 22 17 8 5 2 10 4 7 8 9 5 9 15 15
46 46 45 45 43 43 38 31 24 26 24 28 30 23 23 21 19 21 20 18 18 18 18 17 17 20 20 21 23 21 20 9 13 12 14 16 16 17 17 10 14 11 14 18
46 45 46 45 43 42 34 30 31 30 29 29 29 27 24 23 23 19 18 17 20 20 19 19 19 20 19 18 19 19 21 10 18 14 16 16 15 15 16 17 18 18 19 25
45 45 46 45 43 41 36 36 35 32 29 27 27 25 25 24 24 25 22 20 20 19 21 22 22 22 22 21 19 18 18 17 14 6 16 17 10 17 17 20 25 26 20 24
46 45 45 44 43 40 37 36 34 30 24 27 27 28 26 24 22 20 22 21 19 23 23 23 23 22 22 23 22 22 20 18 12 6 16 -4 9 17 16 22 26 30 30 30
46 45 45 44 43 42 38 38 34 30 23 28 27 27 24 23 23 21 22 25 25 26 22 18 12 14 19 21 24 22 21 21 5 4 10 13 16 19 20 20 18 25 26 26
45 45 45 44 44 42 38 39 38 32 28 26 29 26 25 23 22 25 25 27 29 26 22 14 4 6 17 16 18 24 21 21 16 10 2 2 15 17 24 24 18 24 27 26
45 46 45 45 45 43 40 39 38 33 25 28 28 26 26 27 26 24 26 25 24 25 12 9 13 15 20 16 16 18 20 17 13 11 8 16 19 19 22 15 13 19 26 28
45 45 45 45 45 43 38 38 40 33 25 28 32 32 27 28 28 23 26 25 23 19 13 13 14 18 21 20 19 18 18 13 8 10 2 9 20 21 17 21 22 26 28 29
44 45 45 45 45 44 41 37 41 39 32 29 35 36 35 32 30 28 27 25 24 23 17 16 18 18 20 21 16 21 16 20 17 16 15 20 23 21 22 23 25 28 30 29
43 45 45 45 45 44 40 38 38 34 28 28 29 27 30 36 34 34 25 26 28 24 24 21 19 18 22 15 19 20 21 22 17 19 18 19 21 22 22 26 30 30 30 30
44 45 45 45 45 44 41 37 37 34 27 19 24 30 30 33 34 34 32 31 31 31 30 21 15 17 23 19 19 19 20 19 18 18 18 19 19 20 21 23 25 30 30 30
44 43 43 43 45 43 39 37 37 37 29 21 25 29 30 30 33 33 33 32 29 32 30 27 21 25 25 26 23 22 21 18 18 16 17 18 17 19 21 22 23 25 23 28
44 44 44 44 44 40 34 27 32 38 35 23 19 26 27 26 30 32 31 31 27 24 24 22 24 27 26 23 20 18 20 23 23 21 22 21 22 23 24 24 23 23 27 31
42 42 43 42 40 34 28 27 31 39 35 24 21 22 25 28 29 28 25 28 24 27 29 26 24 24 29 24 19 19 20 21 22 23 25 23 23 22 22 25 24 28 32 30
42 42 42 41 39 36 31 34 40 39 33 30 22 21 22 27 23 21 27 29 30 32 27 28 23 26 27 23 22 21 21 21 22 22 22 22 23 23 22 23 23 30 28 28
41 40 37 33 31 27 28 39 38 37 28 16 22 18 10 26 24 22 22 21 22 23 27 26 26 24 20 22 22 22 22 22 21 21 22 22 23 23 24 25 29 28 28 28
38 33 28 20 30 37 37 32 30 26 30 29 23 23 20 24 24 26 20 23 21 12 21 23 23 21 22 21 22 23 22 20 20 20 20 23 25 25 27 28 29 29 28 30
29 26 31 35 38 33 26 23 23 25 21 25 23 23 21 24 23 23 23 22 25 18 19 19 19 20 25 28 30 34 32 27 26 25 23 21 22 24 26 30 32 30 30 27
30 35 38 34 28 22 19 17 23 22 19 22 22 22 23 21 23 21 25 23 22 17 23 21 16 23 27 28 31 34 35 34 33 33 31 28 28 29 31 30 31 31 29 27
31 28 27 21 23 10 13 7 18 18 23 27 26 22 24 22 25 21 18 12 13 22 11 15 20 26 27 29 29 30 31 33 34 34 34 34 33 32 31 29 29 28 28 28
25 20 12 13 15 18 20 20 23 27 28 26 24 23 26 28 27 24 20 21 21 14 6 12 24 27 28 29 30 29 30 31 30 31 33 31 31 30 29 27 26 25 27 27
23 22 10 17 20 22 22 24 28 28 27 23 21 21 23 21 23 27 26 22 18 16 11 22 26 28 27 26 30 30 29 29 29 31 30 30 28 27 26 27 27 28 25 22
23 23 18 20 17 17 20 23 24 27 24 22 22 23 22 20 23 23 20 18 14 19 21 23 25 24 25 27 29 29 30 30 30 30 30 29 30 28 28 27 30 30 28 26
21 15 22 20 19 17 20 24 22 25 21 12 19 12 17 23 19 18 23 17 22 25 27 27 28 27 26 27 27 28 28 29 29 28 29 28 29 28 27 28 29 28 26 24

GFSNW_sfc_dewp_276.txt.gz
Dewpoint
45 44 44 45 42 42 39 36 26 37 35 28 27 23 24 24 18 20 21 21 19 16 14 13 14 17 19 23 21 17 21 13 14 12 18 23 20 17 15 2 -4 11 11 9
46 46 46 44 42 42 37 32 30 35 32 22 24 26 23 22 18 19 21 19 19 19 15 13 17 17 21 19 19 20 21 12 1 -0 10 19 14 14 8 5 15 12 5 9
46 46 46 44 43 41 37 33 25 29 33 30 24 20 20 20 23 21 19 19 18 17 17 18 17 19 23 22 19 26 22 17 7 0 -2 8 3 7 6 8 2 8 14 12
47 46 45 44 43 42 36 30 25 28 25 28 25 22 23 20 19 20 20 17 17 17 17 17 17 19 20 21 26 22 20 10 13 12 13 14 14 14 15 10 13 11 13 15
46 46 46 45 44 42 34 32 31 29 27 31 27 28 22 21 21 19 18 17 19 19 20 19 19 20 18 17 19 18 20 9 17 15 15 15 14 14 15 17 16 16 16 16
46 46 46 45 43 40 37 36 34 31 28 28 27 26 25 24 23 25 21 21 21 20 19 21 21 22 22 21 18 17 18 17 14 7 15 16 9 15 14 17 20 22 20 23
45 46 46 44 43 40 36 35 32 30 24 28 28 26 25 25 22 20 22 22 20 22 24 23 21 20 22 23 21 21 20 17 12 6 14 -6 7 15 17 20 23 27 26 28
45 46 45 44 43 42 37 37 34 31 25 28 27 28 25 24 23 21 23 25 25 25 21 19 14 14 19 21 23 22 22 20 8 5 10 10 12 16 19 19 19 22 25 26
45 45 45 44 44 42 39 39 36 33 29 27 28 26 23 23 24 25 25 27 28 24 21 13 6 5 14 16 21 24 22 21 16 11 2 1 16 14 24 22 15 21 25 24
46 45 45 45 44 43 40 39 36 32 27 28 28 27 26 26 26 25 25 24 24 23 10 6 10 12 20 16 17 19 20 16 12 6 7 14 18 18 21 13 13 18 25 26
46 45 45 45 44 42 39 38 39 32 28 28 32 32 28 29 28 24 25 23 22 16 10 12 10 16 19 21 19 20 18 13 8 11 1 6 18 19 17 21 21 22 24 27
45 45 45 45 44 43 41 38 40 39 32 30 36 36 35 32 29 27 24 23 23 22 15 13 17 16 17 20 14 20 17 20 17 15 15 20 21 21 22 22 22 24 27 28
45 45 45 45 45 43 41 37 36 34 30 29 29 27 31 35 34 32 25 25 26 23 23 20 18 17 22 14 18 20 19 22 18 19 19 19 21 21 22 21 21 23 28 30
45 45 45 45 44 43 40 37 36 34 30 24 25 30 30 33 34 33 31 30 31 28 27 16 15 16 22 19 19 19 19 19 17 18 17 17 18 20 21 20 21 24 25 28
45 45 45 46 43 42 39 38 38 36 31 24 25 28 28 30 33 33 32 31 29 25 26 23 19 24 24 23 25 21 21 18 17 16 17 18 18 20 21 21 21 22 24 23
45 44 45 45 42 38 34 30 34 38 34 25 18 26 26 27 30 31 30 30 27 23 30 28 27 27 25 16 19 21 20 23 23 22 22 22 22 23 23 23 24 24 24 24
43 44 45 42 38 34 31 29 31 38 33 24 20 22 25 27 29 27 26 27 23 26 23 25 24 25 27 23 19 19 20 21 22 23 24 22 22 21 23 25 24 25 23 25
44 43 42 41 39 36 34 36 40 37 30 27 18 20 21 26 22 21 26 28 27 28 25 28 24 25 26 23 23 23 23 23 23 23 23 23 23 23 23 23 23 23 23 26
42 40 37 33 31 30 30 38 36 34 28 17 23 17 10 26 25 22 21 22 23 24 24 27 26 23 20 22 23 26 29 30 31 32 27 22 22 22 23 23 23 26 25 28
37 32 29 23 30 37 37 30 26 23 23 29 20 23 19 24 24 25 20 23 22 11 19 24 25 22 23 26 27 30 32 34 34 29 27 27 26 24 24 25 25 28 28 28
30 30 32 34 39 31 26 22 23 25 21 24 23 23 21 24 21 22 21 21 22 14 18 18 18 19 25 29 30 30 31 33 34 35 35 33 31 26 24 25 27 30 30 29
31 35 37 34 28 24 20 18 22 21 18 22 21 22 23 22 24 21 24 23 22 18 23 19 15 24 28 28 29 28 29 30 30 32 34 34 33 34 33 32 32 32 32 31
30 29 26 23 23 12 12 12 20 18 23 27 27 21 22 21 23 20 17 12 13 22 12 15 21 26 26 29 29 29 29 30 30 28 29 31 33 32 31 30 30 30 29 29
25 21 14 12 15 17 20 20 21 27 27 25 22 19 26 26 21 23 19 19 21 15 8 11 22 26 26 27 29 29 27 28 28 28 29 29 29 29 29 29 28 27 27 27
24 19 11 15 21 22 23 25 26 27 25 22 20 20 24 23 23 23 24 22 16 18 10 20 25 26 26 25 27 27 26 26 28 29 29 29 28 27 28 29 28 28 27 26
24 22 18 20 19 17 20 23 22 25 23 21 21 22 20 19 22 19 15 19 12 17 22 24 26 26 26 26 27 27 27 28 28 28 28 28 28 27 27 25 25 27 27 29
20 14 22 19 19 17 20 22 20 24 20 10 18 8 16 22 17 17 21 14 19 23 27 29 29 28 26 27 26 25 23 22 23 24 25 25 27 27 26 26 26 27 28 27

GFSNW_sfc_dewp_279.txt.gz
Dewpoint
46 45 44 44 43 43 41 36 30 39 39 32 29 28 24 24 18 20 21 21 19 17 14 13 15 17 18 24 21 17 20 22 13 11 17 21 17 15 13 14 10 15 10 4
46 46 45 45 43 43 37 32 32 37 36 27 28 26 23 21 17 18 19 19 19 18 16 14 17 17 21 20 21 20 21 18 14 -0 13 22 20 20 16 17 17 13 13 7
46 46 47 44 42 43 37 33 29 33 34 31 26 23 21 21 23 20 20 19 20 19 17 20 18 17 21 21 20 27 23 18 17 10 9 17 17 16 16 19 17 14 14 10
46 46 46 44 44 43 35 32 28 30 28 33 26 25 24 20 19 20 19 17 18 18 18 17 17 20 20 21 30 23 22 20 18 17 12 11 12 16 15 16 17 15 8 12
47 47 46 45 44 41 35 33 32 31 30 31 27 28 23 21 19 20 17 20 20 20 21 21 22 20 19 18 19 21 21 16 17 17 14 14 13 13 14 14 13 14 14 13
46 46 46 45 44 41 37 36 35 33 29 29 28 27 25 23 23 24 22 23 22 21 20 23 23 24 25 23 20 18 19 21 17 12 13 15 14 14 12 12 15 18 17 19
46 46 46 44 44 40 37 35 34 33 29 29 28 26 26 24 23 23 22 24 23 23 26 26 24 21 22 23 21 21 20 18 18 15 14 1 2 12 16 18 21 22 23 25
46 46 45 44 44 42 38 38 34 34 30 29 28 27 27 26 27 25 25 26 26 28 25 24 21 19 20 21 21 21 21 20 18 14 12 8 7 14 14 16 11 19 22 24
46 45 45 44 44 43 40 39 37 37 33 30 29 26 25 26 27 25 25 28 29 26 26 24 16 13 14 16 22 23 21 20 18 17 11 7 11 17 23 20 13 20 23 23
45 45 45 44 44 43 40 40 37 35 32 30 29 29 27 28 28 28 27 26 26 25 23 21 19 16 17 12 17 20 20 21 18 16 15 13 15 17 20 13 22 20 25 25
45 45 45 45 44 42 40 40 40 33 32 30 32 31 29 29 30 28 28 29 28 25 22 23 20 19 19 20 19 19 18 18 18 17 15 12 17 17 15 19 23 23 24 25
45 45 45 44 44 43 41 39 41 40 34 33 37 36 36 32 30 30 28 27 24 29 24 21 22 22 23 19 15 21 19 20 20 19 17 20 21 22 24 24 23 23 23 21
45 45 45 44 44 43 41 38 39 36 34 32 31 30 33 36 35 33 31 29 27 24 25 26 25 21 23 21 20 19 20 23 24 21 19 20 22 23 24 22 22 21 22 22
45 45 45 45 44 43 40 37 37 35 33 29 27 31 31 34 35 34 33 31 30 28 28 27 26 24 23 20 18 18 17 19 16 16 17 18 19 20 21 20 21 21 22 23
45 45 45 44 43 42 39 39 39 37 33 28 28 29 29 31 34 34 33 32 31 32 31 29 27 25 24 24 24 22 21 18 16 15 18 20 19 21 23 22 23 23 23 23
44 46 44 43 41 37 35 33 36 38 36 30 25 27 28 32 33 33 32 31 30 31 32 30 29 28 27 24 21 22 22 24 24 21 22 23 24 25 24 24 25 24 24 25
45 45 44 40 41 39 34 31 34 37 35 30 23 23 26 30 30 29 31 31 31 32 30 29 27 27 29 26 19 18 23 25 26 28 28 27 27 26 26 26 24 26 24 24
45 43 43 42 41 38 36 37 39 35 32 30 23 22 26 27 27 28 28 30 31 31 30 30 27 27 29 24 23 26 28 29 30 30 32 32 31 30 27 26 24 23 23 23
42 40 37 34 33 33 35 37 35 35 32 24 23 19 21 27 27 27 27 28 25 28 28 29 28 25 22 23 25 26 29 30 32 33 34 32 30 30 32 30 27 25 24 25
37 32 30 28 32 37 37 32 29 28 27 28 23 24 23 26 26 26 26 26 23 21 22 26 26 21 24 27 29 29 29 30 32 32 29 31 30 31 32 30 27 26 27 29
32 33 32 35 37 33 28 25 24 24 21 24 23 23 20 25 24 24 25 23 23 18 19 22 20 19 25 28 29 29 29 29 29 28 28 29 31 31 31 32 35 35 33 32
34 35 37 34 29 24 20 21 22 19 17 23 22 23 24 23 25 25 26 23 23 16 24 22 18 23 27 27 28 28 28 28 28 28 26 29 28 29 30 30 30 32 34 33
31 30 26 25 23 15 13 15 20 20 23 25 26 25 26 25 24 22 21 19 19 24 21 17 20 25 26 27 28 28 28 29 29 28 28 28 28 28 28 29 30 30 30 30
26 22 15 16 17 18 18 18 21 27 27 26 26 27 26 27 23 23 19 19 22 18 15 15 23 26 27 28 28 28 28 29 28 26 25 25 26 26 28 28 30 30 30 30
23 20 15 18 21 24 26 27 26 27 26 24 25 25 26 24 22 23 22 20 16 18 17 23 26 26 26 27 27 28 28 27 26 26 26 26 27 27 27 28 28 28 29 29
24 22 19 22 20 20 23 24 24 26 24 24 25 24 21 20 21 20 19 18 15 19 24 28 29 28 29 28 28 28 28 26 25 24 24 25 25 25 26 27 28 28 28 28
19 20 22 21 20 21 22 23 22 26 23 19 19 12 14 22 19 18 21 18 21 21 24 26 27 29 29 29 28 27 27 25 24 24 24 25 26 26 26 25 27 27 28 28

GFSNW_sfc_dewp_285.txt.gz
Dewpoint
47 47 46 46 46 47 42 40 40 45 46 41 45 42 22 25 14 16 17 16 15 16 14 13 13 16 18 18 17 19 23 33 18 14 15 15 12 15 19 28 27 18 14 6
47 46 46 46 46 47 36 37 35 44 45 35 41 27 21 18 16 17 17 18 18 19 16 16 17 20 20 16 18 20 19 27 24 13 19 17 16 26 32 32 18 17 21 13
46 46 46 46 46 46 41 38 35 38 37 32 30 24 22 20 18 18 18 18 20 20 20 19 19 21 21 18 19 27 22 23 33 25 27 31 29 31 31 32 25 21 15 12
46 46 46 46 45 45 40 37 37 37 34 39 29 24 20 20 20 21 20 19 18 18 20 19 19 21 21 20 28 21 24 31 27 26 16 9 11 23 19 23 21 19 5 1
46 46 46 45 45 44 39 38 40 34 30 28 27 28 23 20 17 20 19 19 18 19 22 20 25 22 21 21 25 23 24 27 17 19 10 7 7 7 8 12 16 14 12 11
46 47 46 45 45 44 36 37 36 37 32 27 32 31 22 20 21 22 19 20 20 20 19 20 21 22 22 22 25 24 25 27 20 20 11 12 18 14 10 9 9 15 16 18
46 46 45 45 45 44 40 35 35 42 37 27 25 24 20 19 23 23 20 21 22 26 27 26 25 24 22 22 20 24 23 24 25 24 18 19 13 6 6 10 16 15 14 15
46 46 45 45 45 43 40 40 40 46 39 27 22 22 21 24 25 23 24 27 28 29 26 29 32 29 28 25 20 19 21 23 29 24 19 15 12 9 7 9 11 11 12 15
46 45 45 45 45 43 41 41 43 45 45 32 23 22 27 29 30 30 28 29 30 29 34 37 32 25 29 23 20 21 20 23 24 24 21 16 19 15 15 14 13 15 14 15
46 45 44 45 45 44 41 40 45 41 41 34 29 29 31 29 31 34 31 31 31 32 37 35 26 21 12 20 24 23 22 24 26 25 22 18 15 12 18 13 25 23 21 21
45 45 44 45 45 44 42 41 43 42 43 37 34 32 31 31 36 38 33 35 35 38 33 34 32 25 22 17 16 21 22 24 26 26 25 20 16 13 13 21 22 22 23 24
45 45 45 45 45 43 42 36 41 43 42 39 39 38 37 35 36 38 36 34 31 38 38 36 33 30 29 20 20 18 20 23 25 24 24 25 21 19 21 22 22 22 22 21
45 45 45 45 45 43 42 38 41 40 43 37 36 35 36 36 37 38 39 36 31 31 36 37 34 26 23 24 19 18 19 19 26 22 20 18 18 19 20 21 23 23 24 23
45 45 45 45 44 43 42 36 40 40 42 38 33 34 33 36 35 35 37 35 36 35 34 41 38 31 23 22 21 20 19 21 22 21 19 18 18 22 24 26 27 26 26 26
45 45 45 44 44 43 42 39 37 38 39 36 33 33 35 35 35 34 35 35 35 38 40 39 35 27 27 24 24 21 18 20 21 20 23 24 23 26 27 27 27 28 28 28
45 45 44 44 43 43 34 37 37 36 35 41 33 31 33 34 35 35 35 35 37 40 39 36 31 31 29 29 22 20 19 24 24 23 25 25 28 27 27 28 29 28 28 28
44 43 43 43 42 38 41 37 37 37 37 40 28 27 32 32 32 34 37 36 40 37 37 34 27 27 30 30 22 19 23 23 24 25 29 27 29 27 28 27 25 27 26 27
43 43 42 41 41 39 36 35 36 38 34 35 31 27 29 31 31 33 33 36 37 37 33 30 26 28 29 26 20 24 23 23 24 25 29 29 29 27 25 23 23 24 24 26
42 41 41 37 36 37 30 35 38 36 35 35 32 27 28 30 31 32 34 36 33 33 33 29 27 25 24 22 21 23 24 24 26 26 26 24 24 23 22 22 22 22 22 23
40 34 35 35 35 38 37 35 38 38 39 38 29 27 29 28 28 31 32 34 29 27 26 27 27 21 22 25 25 25 25 25 25 24 24 24 23 22 22 20 20 21 19 19
31 35 34 34 36 31 31 34 30 27 26 25 26 25 26 29 27 28 30 28 26 23 23 23 22 20 26 26 24 25 25 24 23 22 22 20 20 19 19 19 19 19 19 19
35 36 35 33 30 31 28 25 21 19 18 22 23 24 26 27 28 26 27 21 23 17 22 24 19 27 25 24 25 25 24 22 21 20 19 19 18 19 19 19 19 19 20 24
33 30 27 29 26 27 22 21 19 24 24 26 25 29 27 26 28 29 26 24 23 22 26 19 26 26 26 26 24 22 21 22 22 22 22 22 21 22 23 22 21 22 22 22
28 24 24 26 23 18 18 20 22 28 26 26 29 31 30 30 27 25 22 20 22 21 19 19 27 25 24 23 24 23 23 24 25 25 24 23 26 26 27 27 27 25 22 23
23 24 21 22 24 26 28 27 27 28 31 30 31 29 29 28 26 24 21 20 17 14 24 27 29 26 25 24 24 24 28 31 29 26 30 32 32 30 30 30 27 24 28 29
24 23 24 26 26 30 30 27 28 28 28 28 27 21 20 18 20 20 19 10 15 26 28 28 26 25 26 22 21 21 21 22 23 23 25 28 30 31 33 31 30 29 31 29
23 27 26 27 26 28 27 25 26 26 25 26 21 20 13 20 16 12 24 25 27 26 26 23 19 18 17 16 17 17 18 19 20 20 27 30 32 33 32 30 31 30 30 29

GFSNW_sfc_dewp_291.txt.gz
Dewpoint
50 49 47 46 47 49 45 44 38 47 50 38 38 34 33 28 19 22 24 23 24 21 16 19 21 21 23 21 21 24 29 25 17 19 19 17 16 26 25 17 17 21 19 13
49 48 47 46 48 47 43 41 40 46 47 33 34 34 30 26 20 20 23 24 23 23 17 20 24 23 23 17 25 23 22 25 14 16 20 22 26 30 29 23 21 18 16 19
49 48 46 45 48 47 45 38 31 38 42 42 34 29 26 25 24 23 24 24 23 23 23 25 24 21 25 25 25 34 31 27 23 17 22 24 14 26 22 15 11 16 18 17
48 47 46 46 47 47 43 40 34 36 33 34 33 31 25 22 22 26 26 24 26 25 22 24 24 22 21 25 29 22 27 18 20 26 25 24 23 21 25 14 18 14 14 11
48 47 45 46 47 46 41 36 39 35 35 37 34 34 25 23 20 23 24 24 24 26 22 25 23 22 22 22 23 21 28 23 21 19 20 16 14 21 23 20 14 13 10 8
47 46 45 46 47 44 40 41 40 40 35 34 32 32 29 25 24 27 26 26 26 28 29 29 27 26 26 27 23 25 24 23 20 19 21 18 11 17 15 20 21 18 17 18
46 45 46 46 45 45 44 43 44 37 31 32 33 32 27 26 27 25 26 26 28 30 30 29 30 29 28 28 24 28 26 24 23 18 19 3 16 10 12 16 17 20 19 17
46 45 46 45 45 45 42 46 47 42 33 31 31 31 28 30 32 30 31 30 29 33 36 28 23 23 21 22 25 27 28 27 20 15 20 19 20 16 14 14 13 20 22 23
45 45 45 45 45 45 41 45 47 47 35 32 36 30 30 30 30 30 32 32 36 40 34 29 18 14 20 19 21 23 28 29 24 20 12 11 21 16 18 16 14 25 25 25
45 44 44 44 45 45 43 43 46 43 35 37 38 33 32 35 35 32 32 31 33 37 30 28 24 24 24 20 21 20 23 23 17 18 17 22 23 18 19 13 20 26 25 25
44 44 44 44 44 45 44 44 47 43 37 36 37 37 36 36 36 32 32 29 32 34 26 29 27 25 24 24 25 22 22 19 16 20 13 16 21 17 16 24 26 26 27 28
44 44 44 44 45 45 45 40 44 44 39 36 39 38 38 38 39 37 34 34 36 36 31 32 31 26 27 23 22 24 22 25 25 25 24 28 23 25 27 27 27 28 28 27
44 43 44 45 45 44 45 42 43 43 38 35 35 35 36 36 41 42 36 38 38 38 39 36 32 27 29 24 23 23 25 27 26 24 26 26 27 27 27 28 27 27 27 26
43 44 44 45 45 44 46 43 44 43 40 33 33 36 35 37 38 39 39 37 40 41 40 34 31 29 27 26 24 23 24 25 25 23 24 27 27 28 28 27 28 26 26 25
43 44 44 44 46 45 41 41 41 43 38 33 33 36 35 38 37 38 39 40 40 38 34 33 30 30 29 28 25 22 23 25 22 24 26 27 27 28 28 27 26 26 25 25
44 44 44 45 43 42 37 34 38 42 42 35 31 34 36 38 38 39 39 40 39 38 34 32 32 32 30 25 24 25 25 26 29 27 28 27 28 29 27 26 26 25 24 24
43 44 45 43 42 39 37 33 37 40 43 35 30 30 33 37 36 37 37 38 36 36 32 31 30 29 31 27 23 23 25 27 30 30 29 28 27 27 29 29 24 25 23 22
44 43 42 41 41 40 36 37 40 41 42 39 30 30 31 33 32 31 35 32 33 34 31 29 28 29 29 24 26 24 24 26 27 27 27 27 29 29 25 23 21 19 19 20
42 42 44 40 39 35 33 40 40 43 38 32 31 27 26 33 32 32 32 31 26 30 25 26 27 26 23 26 25 25 27 27 26 27 25 24 24 23 21 19 19 20 19 21
43 38 37 33 34 40 39 40 33 34 35 35 30 30 27 33 31 29 28 28 25 19 26 28 25 23 27 26 27 27 26 25 25 23 23 23 22 21 21 20 20 22 22 22
36 35 34 36 38 36 34 32 28 30 26 29 31 27 27 32 29 28 30 26 25 20 24 24 24 26 27 28 28 28 26 24 22 22 22 22 24 24 24 25 25 26 25 25
37 35 36 36 36 33 28 26 25 25 23 26 28 29 30 30 32 28 28 24 25 22 26 21 20 30 26 27 28 27 25 25 24 24 23 24 23 25 27 27 27 28 28 27
37 36 33 32 29 24 21 18 23 24 27 30 29 28 29 30 31 27 26 18 19 26 16 19 27 29 27 26 25 24 25 27 27 25 24 26 27 26 25 25 27 28 28 28
32 28 21 24 23 25 25 24 27 30 30 29 30 30 29 30 27 27 21 24 23 15 11 22 29 27 25 26 27 26 25 25 25 26 25 24 24 23 27 26 27 26 26 27
27 27 20 25 29 29 30 30 29 30 32 31 30 29 29 25 22 25 22 17 16 20 22 25 27 26 25 23 24 22 22 21 22 23 23 20 21 24 23 24 25 26 25 24
29 28 28 30 30 30 30 30 30 31 30 31 29 25 22 23 24 21 18 18 16 23 26 27 25 24 22 20 21 22 22 21 22 23 22 23 18 20 22 23 24 25 28 28
29 29 31 31 30 30 31 30 30 32 29 25 25 16 19 24 20 21 25 18 22 26 26 25 20 20 19 20 20 21 22 22 22 21 22 22 23 22 23 20 23 25 27 26